Weather History for Point Salines, Grenada

Change the Weather History Date:

Friday, August 23, 2013

  Actual Average Record
Temperature  
Mean Temperature 84 °F -  
Max Temperature 89 °F 85 °F 89 °F (2006)
Min Temperature 78 °F 76 °F 74 °F (2012)
Cooling Degree Days 18    
Growing Degree Days 34 (Base 50)    
Moisture  
Dew Point 75 °F    
Average Humidity 73    
Maximum Humidity 84    
Minimum Humidity 55    
Precipitation  
Precipitation 0.24 in - - ()
Sea Level Pressure  
Sea Level Pressure 29.88 in    
Wind  
Wind Speed 12 mph ()    
Max Wind Speed 23 mph    
Max Gust Speed -    
Visibility 6.9 miles    
Events Rain    
Averages and records for this station are not official NWS values.
T = Trace of Precipitation, MM = Missing Value Source: Averaged Metar Reports

Daily Weather History Graph

Daily Weather History Graph

Search for Another Location

Airport:

Trip Planner

Search our weather history database for the weather conditions in past years. The results will help you decide how hot, cold, wet, or windy it might be!

Date:

Astronomy

Aug. 23, 2013 Rise Set
Actual Time 5:56 AM AST 6:22 PM AST
Civil Twilight 5:34 AM AST 6:44 PM AST
Nautical Twilight 5:09 AM AST 7:09 PM AST
Astronomical Twilight 4:44 AM AST 7:34 PM AST
Moon 8:23 PM AST (8/23) 8:06 AM AST (8/23)
Length of Visible Light 13h 09m
Length of Day
12h 26m
Waning Gibbous, 91% of the Moon is Illuminated
Aug 23
Waning Gibbous
Aug 28
Last Quarter
Sep 5
New
Sep 12
First Quarter
Sep 19
Full

Hourly Weather History & Observations

Time (AST) Temp. Heat Index Dew Point Humidity Pressure Visibility Wind Dir Wind Speed Gust Speed Precip Events Conditions
12:00 AM 80.6 °F 86.2 °F 75.2 °F 84% 29.89 in 6.2 mi East 10.4 mph - N/A   Partly Cloudy
1:00 AM 80.6 °F 86.2 °F 75.2 °F 84% 29.89 in 6.2 mi East 11.5 mph - N/A   Partly Cloudy
2:00 AM 80 °F - 75 °F 81% 29.87 in 17 mi East 13.8 mph - -   Scattered Clouds
2:00 AM 80.6 °F 86.2 °F 75.2 °F 84% 29.86 in 6.2 mi East 13.8 mph - N/A   Partly Cloudy
3:00 AM 80.6 °F 86.2 °F 75.2 °F 84% 29.86 in 6.2 mi East 15.0 mph - N/A   Partly Cloudy
4:00 AM 80.6 °F 86.2 °F 75.2 °F 84% 29.86 in 6.2 mi East 12.7 mph - N/A   Partly Cloudy
5:00 AM 80 °F - 74 °F 79% 29.88 in 17 mi East 9.2 mph - -   Scattered Clouds
5:00 AM 80.6 °F 86.2 °F 75.2 °F 84% 29.86 in 6.2 mi East 9.2 mph - N/A   Partly Cloudy
6:00 AM 80.6 °F 86.2 °F 75.2 °F 84% 29.86 in 6.2 mi East 11.5 mph - N/A   Partly Cloudy
7:00 AM 82.4 °F 89.5 °F 75.2 °F 79% 29.89 in 5.6 mi East 11.5 mph - N/A   Partly Cloudy
8:00 AM 85 °F - 76 °F 68% 29.91 in 6 mi East 12.7 mph - -   Widespread Dust
8:00 AM 84.2 °F 92.3 °F 75.2 °F 74% 29.89 in 6.2 mi East 12.7 mph - N/A   Partly Cloudy
9:00 AM 87.8 °F 97.6 °F 75.2 °F 66% 29.92 in 6.2 mi East 13.8 mph - N/A   Partly Cloudy
10:00 AM 87.8 °F 97.6 °F 75.2 °F 66% 29.92 in 6.2 mi East 17.3 mph - N/A   Scattered Clouds
11:00 AM 86 °F - 74 °F 61% 29.93 in 6 mi East 17.3 mph - - Rain Light Rain Showers
11:00 AM 86.0 °F 95.1 °F 75.2 °F 70% 29.92 in 6.2 mi East 17.3 mph - N/A Rain Light Rain Showers
12:00 PM 86 °F - 74 °F 61% 29.93 in 6 mi East 17.3 mph - - Rain Light Rain Showers
12:00 PM 87.8 °F 97.6 °F 75.2 °F 66% 29.89 in 6.2 mi ESE 17.3 mph - N/A   Scattered Clouds
1:00 PM 89.6 °F 99.8 °F 75.2 °F 62% 29.86 in 6.2 mi SE 19.6 mph - N/A   Scattered Clouds
2:00 PM 88 °F - 74 °F 55% 29.85 in 6 mi East 17.3 mph - -   Widespread Dust
2:00 PM 87.8 °F 95.6 °F 73.4 °F 62% 29.83 in 6.2 mi East 17.3 mph - N/A   Scattered Clouds
3:00 PM 89.6 °F 99.8 °F 75.2 °F 62% 29.83 in 6.2 mi East 18.4 mph - N/A   Partly Cloudy
4:00 PM 89.6 °F 99.8 °F 75.2 °F 62% 29.83 in 6.2 mi East 19.6 mph - N/A   Scattered Clouds
5:00 PM 87 °F - 75 °F 60% 29.84 in 7 mi East 23.0 mph - -   Widespread Dust
5:00 PM 86.0 °F 95.1 °F 75.2 °F 70% 29.83 in 6.2 mi East 23.0 mph - N/A   Partly Cloudy
6:00 PM 86.0 °F 95.1 °F 75.2 °F 70% 29.83 in 6.2 mi East 15.0 mph - N/A   Partly Cloudy
7:00 PM 84.2 °F 92.3 °F 75.2 °F 74% 29.86 in 6.2 mi East 12.7 mph - N/A   Partly Cloudy
8:00 PM 83 °F - 76 °F 73% 29.89 in 7 mi East 13.8 mph - -   Widespread Dust
8:00 PM 82.4 °F 89.5 °F 75.2 °F 79% 29.89 in 6.2 mi East 13.8 mph - N/A   Partly Cloudy
9:00 PM 82.4 °F 89.5 °F 75.2 °F 79% 29.89 in 6.2 mi East 11.5 mph - N/A   Partly Cloudy
10:00 PM 82.4 °F 89.5 °F 75.2 °F 79% 29.92 in 6.2 mi East 10.4 mph - N/A   Scattered Clouds
11:00 PM 82 °F - 74 °F 72% 29.92 in 7 mi ENE 8.1 mph - -   Widespread Dust
11:00 PM 82.4 °F 89.5 °F 75.2 °F 79% 29.92 in 6.2 mi ENE 8.1 mph - N/A   Scattered Clouds